User: anonymous   Login
Location: ??????
(55.6500°N, 37.8000°E)
Time: 18:56:37
(UTC+00:00)
Language:

Thor Agena Rocket - Orbit

View from above orbital plane
View from above orbital plane
View from above satellite
View from above satellite

Ground track
Ground track

The orbit data is extracted from the following two-line orbital elements,

1 00733U 64002A   24177.50051774  .00000306  00000-0  12841-3 0  9993
2 00733  99.0743 147.3696 0032212 270.0834  89.6657 14.33235287149145
Epoch (UTC): 25 June 2024 12:00:44
Eccentricity: 0.0032212
inclination: 99.0743°
perigee height: 758 km
apogee height: 804 km
right ascension of ascending node: 147.3696°
argument of perigee: 270.0834°
revolutions per day: 14.33235287
mean anomaly at epoch: 89.6657°
orbit number at epoch: 14914

The dashed part of the orbit path shows where the satellite is in the earth's shadow,  

DLR